Showing default

COSMOS 2449 (GLONASS), 33467

Orbit data source: Space-Track

COSMOS 2449 (GLONASS), 33467 is a Commonwealth of Independent States-origin payload satellite in MEO that was launched on Thu, 25 Dec 2008 UTC via a PROTON-M/DM-2 launch vehicle from the Tyuratam Missile And Space Complex (TTMTR). Payload-class satellites include a variety of spacecraft equipped with specific instruments for various scientific and technological missions. These include communications satellites like Starlink; space stations such as the ISS; scientific satellites like the Hubble; Earth observation satellites from companies like Planet Labs, Umbra, and HawkEye 360; GPS; miniature CubeSats for education and research; and military/defense satellites.

Loading next visibility...
Identifier
33467, 2008-067B
Orbit
MEO
Country
Flag of CISCIS
Related business
Manufacturer
Resehetnev ISS
Mission
Non-operational Defense Navigation
Bus & Motor
URAGAN, Unknown motor
Mass
1,450 kg wet, ~1,200 kg dry
Launch date (UTC)
2008-12-25 (17 years ago)
Launch vehicle
PROTON-M/DM-2
Launch site
Tyuratam Missile And Space Complex (TTMTR)
Object type
Payload
Rocket body
Debris
Shape & HBR
Cyl + 1 Ant + 2 Pan, 3.9 m
Radar Cross Section
8.467 m², Large (>1 m²)

Expand to show TLE details & history
Last TLE update: 2 days ago

TLE from 2 days ago
0 COSMOS 2449 (GLONASS)
1 33467U 08067B   26171.17041882 -.00000044  00000-0  00000+0 0  9990
2 33467  64.8106  69.1555 0033023 237.5718 122.1499  2.13096463136029
Epoch: 2026-06-20T04:05Z
TLE epoch observation values (Epoch: 2026-06-20T04:05:24.186Z)
Latitude
0.00008°
Longitude
99.42852°
Altitude
19,175.99 km
Speed
3.946 km/s
True Right ascension
04h 36m 40s
True Declination
0° 00' 00"
Sunlit
Object was in daylight at epoch
Visualization orbit readout
Latitude
Unknown
Longitude
Unknown
Altitude
Unknown
Speed
Unknown
Apparent Right ascension
Unknown
Apparent Declination
Unknown
Sunlit
N/A
Visualization observer readout
Local Sidereal Time
23:18:27
Azimuth
Unknown
Elevation
Unknown
Doppler factor
Unknown
Orbital elements
Apogee altitude
19,214.186 km
Perigee altitude
19,045.715 km
Semi-major axis
25,508.088 km
Eccentricity
0.0033
Inclination
64.8106°
RAAN
69.1555°
Arg. of periapsis
237.5718°
True anomaly
122.46959°
Mean anomaly
122.1499°
Eccentric anomaly
122.30981°
Mean motion
0.53275 °/min
Orbital period
675.73 mins
BSTAR
0
Loading maneuver chart data...
Computing Atmospheric mass density...
Loading historical data...
Loading historical data...
Loading historical data...
Loading historical data...
Loading historical data...
Loading historical data...
Loading historical data...

Documentation

Showing up to 5 results
|